| time (UTC) | temp C | wind direction | speed KPH | gust KPH | rain 1hr cm | rain 24hr cm | rain mn cm | humidity % | barometer mb |
| 20260901104534 | 23 | 262 | 0.0 | 1.6 | 0.00 | 0.00 | 0.00 | 94 | 1016.0 |
| 20260901104023 | 23 | 262 | 0.0 | 3.2 | 0.00 | 0.00 | 0.00 | 94 | 1015.9 |
| 20260901103523 | 23 | 262 | 0.0 | 4.8 | 0.00 | 0.00 | 0.00 | 94 | 1015.7 |
| 20260901103029 | 23 | 210 | 0.0 | 4.8 | 0.00 | 0.00 | 0.00 | 95 | 1015.7 |
| 20260901102522 | 23 | 200 | 0.0 | 4.8 | 0.00 | 0.00 | 0.00 | 94 | 1015.7 |
| 20260901102022 | 23 | 207 | 1.6 | 6.4 | 0.00 | 0.00 | 0.00 | 94 | 1015.7 |
| 20260901101521 | 23 | 215 | 1.6 | 6.4 | 0.00 | 0.00 | 0.00 | 94 | 1015.7 |
| 20260901101020 | 23 | 210 | 0.0 | 3.2 | 0.00 | 0.00 | 0.00 | 94 | 1015.7 |
| 20260901100520 | 23 | 210 | 0.0 | 3.2 | 0.00 | 0.00 | 0.00 | 94 | 1015.8 |
| 20260901100019 | 23 | 212 | 1.6 | 3.2 | 0.00 | 0.00 | 0.00 | 94 | 1015.9 |
| 20260901095517 | 23 | 229 | 1.6 | 3.2 | 0.00 | 0.00 | 0.00 | 94 | 1016.0 |
| 20260901095017 | 22 | 209 | 0.0 | 1.6 | 0.00 | 0.00 | 0.00 | 94 | 1016.0 |
| 20260901094521 | 22 | 209 | 0.0 | 3.2 | 0.00 | 0.00 | 0.00 | 94 | 1016.0 |
| 20260901094017 | 22 | 209 | 0.0 | 3.2 | 0.00 | 0.00 | 0.00 | 94 | 1016.0 |
| 20260901093516 | 22 | 209 | 0.0 | 4.8 | 0.00 | 0.00 | 0.00 | 94 | 1016.0 |
| 20260901093018 | 22 | 207 | 0.0 | 4.8 | 0.00 | 0.00 | 0.00 | 94 | 1016.0 |
| 20260901092515 | 22 | 200 | 0.0 | 4.8 | 0.00 | 0.00 | 0.00 | 94 | 1016.1 |
| 20260901092015 | 22 | 244 | 0.0 | 4.8 | 0.00 | 0.00 | 0.00 | 94 | 1016.1 |
| 20260901091515 | 22 | 221 | 0.0 | 4.8 | 0.00 | 0.00 | 0.00 | 94 | 1016.0 |
| 20260901091015 | 22 | 223 | 1.6 | 4.8 | 0.00 | 0.00 | 0.00 | 95 | 1016.0 |
| 20260901090512 | 22 | 245 | 0.0 | 4.8 | 0.00 | 0.00 | 0.00 | 94 | 1016.1 |
| 20260901090011 | 22 | 240 | 1.6 | 4.8 | 0.00 | 0.00 | 0.00 | 94 | 1016.0 |
| 20260901085509 | 22 | 223 | 1.6 | 3.2 | 0.00 | 0.00 | 0.00 | 94 | 1016.0 |
| 20260901085009 | 22 | 205 | 0.0 | 3.2 | 0.00 | 0.00 | 0.00 | 95 | 1016.1 |
| 20260901084508 | 22 | 205 | 1.6 | 3.2 | 0.00 | 0.00 | 0.00 | 95 | 1016.1 |
| 20260901084008 | 22 | 196 | 0.0 | 3.2 | 0.00 | 0.00 | 0.00 | 94 | 1016.1 |
| 20260901083507 | 22 | 196 | 0.0 | 1.6 | 0.00 | 0.00 | 0.00 | 94 | 1016.2 |
| 20260901083004 | 22 | 196 | 0.0 | 1.6 | 0.00 | 0.00 | 0.00 | 94 | 1016.2 |
| 20260901082504 | 22 | 196 | 0.0 | 1.6 | 0.00 | 0.00 | 0.00 | 94 | 1016.2 |
| 20260901082002 | 22 | 196 | 0.0 | 0.0 | 0.00 | 0.00 | 0.00 | 94 | 1016.2 |
| 20260901081601 | 22 | 196 | 0.0 | 1.6 | 0.00 | 0.00 | 0.00 | 94 | 1016.2 |
| 20260901081058 | 22 | 196 | 0.0 | 1.6 | 0.00 | 0.00 | 0.00 | 94 | 1016.2 |
| 20260901080603 | 22 | 196 | 0.0 | 3.2 | 0.00 | 0.00 | 0.00 | 94 | 1016.2 |
| 20260901080110 | 22 | 196 | 0.0 | 3.2 | 0.00 | 0.00 | 0.00 | 94 | 1016.2 |
| 20260901075556 | 22 | 196 | 0.0 | 1.6 | 0.00 | 0.08 | 0.00 | 94 | 1016.2 |
| 20260901075056 | 22 | 196 | 0.0 | 1.6 | 0.00 | 0.08 | 0.00 | 94 | 1016.3 |
| 20260901074554 | 22 | 196 | 0.0 | 1.6 | 0.00 | 0.08 | 0.00 | 94 | 1016.3 |
| 20260901074056 | 22 | 196 | 0.0 | 1.6 | 0.00 | 0.08 | 0.00 | 94 | 1016.4 |
| 20260901073554 | 22 | 196 | 0.0 | 1.6 | 0.00 | 0.08 | 0.00 | 94 | 1016.4 |
| 20260901073054 | 21 | 196 | 0.0 | 1.6 | 0.00 | 0.08 | 0.00 | 94 | 1016.5 |
| 20260901072554 | 21 | 196 | 0.0 | 0.0 | 0.00 | 0.08 | 0.00 | 94 | 1016.6 |
| 20260901072054 | 21 | 196 | 0.0 | 0.0 | 0.00 | 0.08 | 0.00 | 94 | 1016.6 |
| 20260901071602 | 21 | 196 | 0.0 | 0.0 | 0.00 | 0.08 | 0.00 | 94 | 1016.6 |
| 20260901071055 | 21 | 196 | 0.0 | 1.6 | 0.00 | 0.08 | 0.00 | 94 | 1016.6 |
| 20260901070553 | 21 | 196 | 0.0 | 1.6 | 0.00 | 0.08 | 0.00 | 94 | 1016.5 |
| 20260901070100 | 21 | 196 | 0.0 | 0.0 | 0.00 | 0.08 | 0.00 | 94 | 1016.5 |
| 20260901065556 | 21 | 196 | 0.0 | 0.0 | 0.00 | 0.15 | 0.00 | 93 | 1016.4 |
| 20260901065053 | 21 | 196 | 0.0 | 0.0 | 0.00 | 0.15 | 0.00 | 93 | 1016.4 |
| 20260901064607 | 21 | 196 | 0.0 | 1.6 | 0.00 | 0.15 | 0.00 | 93 | 1016.5 |
| 20260901064052 | 21 | 196 | 0.0 | 1.6 | 0.00 | 0.15 | 0.00 | 93 | 1016.4 |
| 20260901063549 | 21 | 196 | 0.0 | 1.6 | 0.00 | 0.15 | 0.00 | 93 | 1016.6 |
| 20260901063109 | 21 | 196 | 0.0 | 1.6 | 0.00 | 0.15 | 0.00 | 93 | 1016.6 |
| 20260901062548 | 21 | 196 | 0.0 | 1.6 | 0.00 | 0.15 | 0.00 | 93 | 1016.7 |
| 20260901062047 | 21 | 196 | 0.0 | 1.6 | 0.00 | 0.15 | 0.00 | 93 | 1016.9 |
| 20260901061549 | 22 | 196 | 0.0 | 1.6 | 0.00 | 0.15 | 0.00 | 93 | 1017.0 |
| 20260901061047 | 22 | 196 | 0.0 | 1.6 | 0.00 | 0.15 | 0.00 | 93 | 1016.9 |
| 20260901060549 | 22 | 196 | 0.0 | 3.2 | 0.00 | 0.15 | 0.00 | 94 | 1016.9 |
| 20260901060046 | 22 | 196 | 0.0 | 3.2 | 0.00 | 0.15 | 0.00 | 94 | 1016.9 |
| 20260901055545 | 22 | 195 | 0.0 | 1.6 | 0.00 | 0.15 | 0.00 | 93 | 1016.9 |
| 20260901055044 | 22 | 195 | 0.0 | 1.6 | 0.00 | 0.15 | 0.00 | 93 | 1017.0 |
| 20260901054544 | 21 | 197 | 0.0 | 1.6 | 0.00 | 0.15 | 0.00 | 93 | 1017.2 |
| 20260901054042 | 22 | 197 | 0.0 | 1.6 | 0.00 | 0.15 | 0.00 | 93 | 1017.3 |
| 20260901053545 | 22 | 197 | 0.0 | 1.6 | 0.00 | 0.15 | 0.00 | 93 | 1017.4 |
| 20260901053041 | 22 | 197 | 0.0 | 0.0 | 0.00 | 0.15 | 0.00 | 93 | 1017.5 |
| 20260901052541 | 22 | 197 | 0.0 | 0.0 | 0.00 | 0.15 | 0.00 | 93 | 1017.5 |
| 20260901052039 | 22 | 197 | 0.0 | 0.0 | 0.00 | 0.15 | 0.00 | 93 | 1017.4 |
| 20260901051539 | 22 | 197 | 0.0 | 0.0 | 0.00 | 0.15 | 0.00 | 93 | 1017.5 |
| 20260901051037 | 22 | 197 | 0.0 | 1.6 | 0.00 | 0.15 | 0.00 | 93 | 1017.5 |
| 20260901050536 | 22 | 197 | 0.0 | 3.2 | 0.00 | 0.15 | 0.00 | 93 | 1017.5 |
| 20260901050035 | 22 | 197 | 0.0 | 3.2 | 0.00 | 0.15 | 0.00 | 93 | 1017.4 |
| 20260901045532 | 22 | 78 | 0.0 | 1.6 | 0.00 | 0.15 | 0.00 | 93 | 1017.5 |
| 20260901045031 | 22 | 78 | 0.0 | 1.6 | 0.00 | 0.15 | 0.00 | 93 | 1017.6 |
| 20260901044530 | 22 | 78 | 0.0 | 0.0 | 0.00 | 0.15 | 0.00 | 93 | 1017.6 |
| 20260901044031 | 22 | 78 | 0.0 | 0.0 | 0.00 | 0.15 | 0.00 | 93 | 1017.6 |
| 20260901043527 | 22 | 78 | 0.0 | 1.6 | 0.00 | 0.15 | 0.00 | 93 | 1017.6 |
| 20260901043026 | 22 | 78 | 0.0 | 1.6 | 0.00 | 0.15 | 0.00 | 93 | 1017.5 |
| 20260901042525 | 22 | 78 | 0.0 | 1.6 | 0.00 | 0.15 | 0.00 | 93 | 1017.5 |
| 20260901042025 | 22 | 78 | 0.0 | 0.0 | 0.00 | 0.15 | 0.00 | 93 | 1017.7 |
| 20260901041524 | 22 | 78 | 0.0 | 0.0 | 0.00 | 0.15 | 0.00 | 93 | 1017.7 |
| 20260901041024 | 22 | 78 | 0.0 | 0.0 | 0.00 | 0.15 | 0.00 | 93 | 1017.6 |
| 20260901040524 | 22 | 78 | 0.0 | 0.0 | 0.00 | 0.15 | 0.00 | 93 | 1017.6 |
| 20260901040022 | 22 | 78 | 0.0 | 0.0 | 0.00 | 0.15 | 0.00 | 93 | 1017.5 |
| 20260901035523 | 22 | 78 | 0.0 | 0.0 | 0.00 | 0.15 | 0.15 | 92 | 1017.4 |
| 20260901035022 | 22 | 78 | 0.0 | 0.0 | 0.00 | 0.15 | 0.15 | 93 | 1017.4 |
| 20260901034523 | 22 | 78 | 0.0 | 0.0 | 0.00 | 0.15 | 0.15 | 92 | 1017.4 |
| 20260901034021 | 22 | 78 | 0.0 | 0.0 | 0.00 | 0.15 | 0.15 | 92 | 1017.3 |
| 20260901033521 | 22 | 78 | 0.0 | 0.0 | 0.00 | 0.15 | 0.15 | 92 | 1017.3 |
| 20260901033033 | 22 | 78 | 0.0 | 0.0 | 0.00 | 0.15 | 0.15 | 92 | 1017.3 |
| 20260901032520 | 22 | 78 | 0.0 | 0.0 | 0.00 | 0.15 | 0.15 | 92 | 1017.4 |
| 20260901032020 | 22 | 78 | 0.0 | 0.0 | 0.00 | 0.15 | 0.15 | 92 | 1017.4 |
| 20260901031523 | 22 | 78 | 0.0 | 1.6 | 0.00 | 0.15 | 0.15 | 92 | 1017.4 |
| 20260901031018 | 22 | 78 | 0.0 | 1.6 | 0.00 | 0.15 | 0.15 | 92 | 1017.4 |
| 20260901030520 | 22 | 78 | 0.0 | 1.6 | 0.00 | 0.15 | 0.15 | 92 | 1017.5 |
| 20260901030018 | 22 | 78 | 0.0 | 1.6 | 0.00 | 0.15 | 0.15 | 92 | 1017.7 |
| 20260901025518 | 22 | 78 | 0.0 | 1.6 | 0.00 | 0.15 | 0.15 | 92 | 1017.7 |
| 20260901025019 | 22 | 78 | 0.0 | 1.6 | 0.00 | 0.15 | 0.15 | 92 | 1017.7 |
| 20260901024518 | 22 | 78 | 0.0 | 1.6 | 0.00 | 0.15 | 0.15 | 91 | 1017.7 |
| 20260901024019 | 22 | 78 | 0.0 | 3.2 | 0.00 | 0.15 | 0.15 | 91 | 1017.7 |
| 20260901023518 | 22 | 78 | 0.0 | 3.2 | 0.00 | 0.15 | 0.15 | 92 | 1017.8 |
| 20260901023018 | 22 | 95 | 0.0 | 1.6 | 0.00 | 0.15 | 0.15 | 91 | 1017.8 |
| 20260901022518 | 22 | 95 | 0.0 | 1.6 | 0.00 | 0.15 | 0.15 | 91 | 1017.8 |
| 20260901022018 | 22 | 95 | 0.0 | 1.6 | 0.00 | 0.15 | 0.15 | 91 | 1017.8 |
| 20260901021537 | 22 | 95 | 0.0 | 3.2 | 0.00 | 0.15 | 0.15 | 91 | 1017.9 |
| 20260901021018 | 22 | 103 | 0.0 | 3.2 | 0.00 | 0.15 | 0.15 | 91 | 1017.9 |
| 20260901020520 | 22 | 125 | 0.0 | 1.6 | 0.00 | 0.15 | 0.15 | 91 | 1017.9 |
| 20260901020016 | 22 | 223 | 0.0 | 1.6 | 0.00 | 0.15 | 0.15 | 91 | 1017.8 |
| 20260901015515 | 22 | 223 | 0.0 | 1.6 | 0.00 | 0.15 | 0.15 | 91 | 1017.8 |
| 20260901015016 | 22 | 223 | 0.0 | 1.6 | 0.00 | 0.15 | 0.15 | 91 | 1017.8 |
| 20260901014515 | 22 | 224 | 0.0 | 1.6 | 0.00 | 0.15 | 0.15 | 91 | 1017.9 |
| 20260901014015 | 22 | 224 | 0.0 | 3.2 | 0.00 | 0.15 | 0.15 | 90 | 1017.9 |
| 20260901013517 | 22 | 224 | 0.0 | 3.2 | 0.00 | 0.15 | 0.15 | 91 | 1017.8 |
| 20260901013023 | 22 | 219 | 1.6 | 3.2 | 0.00 | 0.15 | 0.15 | 91 | 1017.7 |
| 20260901012515 | 22 | 179 | 0.0 | 1.6 | 0.00 | 0.15 | 0.15 | 90 | 1017.6 |
| 20260901012017 | 22 | 179 | 0.0 | 1.6 | 0.00 | 0.15 | 0.15 | 90 | 1017.6 |
| 20260901011519 | 22 | 220 | 0.0 | 3.2 | 0.00 | 0.15 | 0.15 | 90 | 1017.7 |
| 20260901011014 | 22 | 220 | 0.0 | 3.2 | 0.00 | 0.15 | 0.15 | 90 | 1017.8 |
| 20260901010514 | 22 | 220 | 0.0 | 1.6 | 0.00 | 0.15 | 0.15 | 90 | 1017.8 |
| 20260901010033 | 22 | 220 | 0.0 | 1.6 | 0.00 | 0.15 | 0.15 | 89 | 1017.8 |
| 20260901005514 | 22 | 233 | 0.0 | 1.6 | 0.00 | 0.15 | 0.15 | 89 | 1017.8 |
| 20260901005013 | 22 | 234 | 0.0 | 1.6 | 0.00 | 0.15 | 0.15 | 89 | 1017.7 |
| 20260901004515 | 22 | 234 | 0.0 | 1.6 | 0.00 | 0.15 | 0.15 | 89 | 1017.6 |
| 20260901004013 | 22 | 233 | 0.0 | 3.2 | 0.00 | 0.15 | 0.15 | 89 | 1017.7 |
| 20260901003513 | 22 | 234 | 0.0 | 3.2 | 0.00 | 0.15 | 0.15 | 88 | 1017.5 |
| 20260901003019 | 22 | 223 | 1.6 | 3.2 | 0.00 | 0.15 | 0.15 | 88 | 1017.4 |
| 20260901002512 | 22 | 186 | 0.0 | 3.2 | 0.00 | 0.15 | 0.15 | 87 | 1017.5 |
| 20260901002012 | 22 | 186 | 0.0 | 3.2 | 0.00 | 0.15 | 0.15 | 87 | 1017.6 |
| 20260901001511 | 23 | 181 | 0.0 | 1.6 | 0.00 | 0.15 | 0.15 | 87 | 1017.6 |
| 20260901001010 | 23 | 181 | 0.0 | 0.0 | 0.00 | 0.15 | 0.15 | 86 | 1017.7 |
| 20260901000510 | 23 | 181 | 0.0 | 0.0 | 0.00 | 0.15 | 0.15 | 86 | 1017.6 |
| 20260901000010 | 23 | 182 | 0.0 | 0.0 | 0.00 | 0.15 | 0.15 | 86 | 1017.7 |
| 20260831235515 | 23 | 182 | 0.0 | 1.6 | 0.00 | 0.15 | 0.15 | 86 | 1017.7 |
| 20260831235011 | 23 | 182 | 0.0 | 1.6 | 0.00 | 0.15 | 0.15 | 85 | 1017.7 |
| 20260831234510 | 23 | 182 | 0.0 | 1.6 | 0.00 | 0.15 | 0.15 | 85 | 1017.8 |
| 20260831234010 | 23 | 170 | 0.0 | 1.6 | 0.00 | 0.15 | 0.15 | 85 | 1017.9 |
| 20260831233510 | 23 | 191 | 0.0 | 3.2 | 0.00 | 0.15 | 0.15 | 85 | 1017.9 |
| 20260831233009 | 23 | 217 | 0.0 | 3.2 | 0.00 | 0.15 | 0.15 | 84 | 1018.0 |
| 20260831232513 | 23 | 109 | 0.0 | 3.2 | 0.00 | 0.15 | 0.15 | 84 | 1017.9 |
| 20260831232010 | 23 | 150 | 0.0 | 3.2 | 0.00 | 0.15 | 0.15 | 84 | 1018.1 |
| 20260831231509 | 23 | 202 | 0.0 | 4.8 | 0.00 | 0.15 | 0.15 | 83 | 1018.1 |
| 20260831231008 | 23 | 120 | 0.0 | 4.8 | 0.00 | 0.15 | 0.15 | 83 | 1018.0 |
| 20260831230508 | 24 | 150 | 0.0 | 4.8 | 0.00 | 0.15 | 0.15 | 83 | 1017.9 |
| 20260831230008 | 24 | 147 | 1.6 | 6.4 | 0.00 | 0.15 | 0.15 | 83 | 1018.0 |
| 20260831225506 | 24 | 77 | 1.6 | 6.4 | 0.00 | 0.15 | 0.15 | 83 | 1017.9 |
| 20260831225008 | 24 | 102 | 1.6 | 4.8 | 0.00 | 0.15 | 0.15 | 83 | 1017.9 |
| 20260831224508 | 24 | 67 | 0.0 | 4.8 | 0.00 | 0.15 | 0.15 | 82 | 1018.0 |
| 20260831224006 | 24 | 101 | 1.6 | 4.8 | 0.00 | 0.15 | 0.15 | 82 | 1018.2 |
| 20260831223506 | 24 | 67 | 1.6 | 3.2 | 0.00 | 0.15 | 0.15 | 82 | 1018.1 |
| 20260831223014 | 24 | 123 | 0.0 | 6.4 | 0.00 | 0.15 | 0.15 | 82 | 1018.2 |
| 20260831222506 | 24 | 103 | 3.2 | 6.4 | 0.00 | 0.15 | 0.15 | 81 | 1018.2 |
| 20260831222005 | 24 | 130 | 0.0 | 8.0 | 0.00 | 0.15 | 0.15 | 81 | 1018.2 |
| 20260831221511 | 24 | 148 | 1.6 | 8.0 | 0.00 | 0.15 | 0.15 | 81 | 1018.2 |
| 20260831221004 | 24 | 174 | 1.6 | 9.7 | 0.00 | 0.15 | 0.15 | 80 | 1018.2 |
| 20260831220504 | 25 | 92 | 1.6 | 9.7 | 0.00 | 0.15 | 0.15 | 80 | 1018.3 |
| 20260831220006 | 25 | 164 | 1.6 | 9.7 | 0.00 | 0.15 | 0.15 | 80 | 1018.5 |
| 20260831215506 | 25 | 124 | 3.2 | 9.7 | 0.00 | 0.15 | 0.15 | 79 | 1018.5 |
| 20260831215004 | 25 | 80 | 3.2 | 12.9 | 0.00 | 0.15 | 0.15 | 79 | 1018.4 |
| 20260831214503 | 25 | 129 | 4.8 | 12.9 | 0.00 | 0.15 | 0.15 | 78 | 1018.3 |
| 20260831214003 | 25 | 153 | 1.6 | 11.3 | 0.00 | 0.15 | 0.15 | 78 | 1018.3 |
| 20260831213503 | 25 | 132 | 4.8 | 11.3 | 0.00 | 0.15 | 0.15 | 77 | 1018.3 |
| 20260831213002 | 25 | 128 | 3.2 | 14.5 | 0.00 | 0.15 | 0.15 | 77 | 1018.3 |
| 20260831212502 | 26 | 48 | 6.4 | 14.5 | 0.00 | 0.15 | 0.15 | 76 | 1018.2 |
| 20260831212002 | 26 | 88 | 3.2 | 9.7 | 0.00 | 0.15 | 0.15 | 76 | 1018.2 |
| 20260831211505 | 26 | 139 | 3.2 | 14.5 | 0.00 | 0.15 | 0.15 | 76 | 1018.2 |
| 20260831211002 | 26 | 82 | 1.6 | 17.7 | 0.00 | 0.15 | 0.15 | 75 | 1018.1 |
| 20260831210500 | 26 | 330 | 3.2 | 17.7 | 0.00 | 0.15 | 0.15 | 75 | 1018.1 |
| 20260831210103 | 26 | 140 | 4.8 | 16.1 | 0.00 | 0.15 | 0.15 | 75 | 1018.1 |
| 20260831205603 | 26 | 78 | 6.4 | 12.9 | 0.00 | 0.15 | 0.15 | 75 | 1018.1 |
| 20260831205100 | 26 | 130 | 4.8 | 12.9 | 0.00 | 0.15 | 0.15 | 75 | 1018.1 |
| 20260831204600 | 26 | 87 | 3.2 | 14.5 | 0.00 | 0.15 | 0.15 | 76 | 1018.1 |
| 20260831204100 | 26 | 215 | 4.8 | 14.5 | 0.00 | 0.15 | 0.15 | 75 | 1018.2 |
| 20260831203559 | 26 | 123 | 4.8 | 12.9 | 0.00 | 0.15 | 0.15 | 79 | 1018.2 |
| 20260831203501 | 26 | 128 | 4.8 | 11.3 | 0.00 | 0.15 | 0.15 | 78 | 1018.2 |
| 20260831203059 | 26 | 124 | 4.8 | 11.3 | 0.00 | 0.15 | 0.15 | 78 | 1018.3 |
| 20260831202558 | 25 | 105 | 4.8 | 9.7 | 0.00 | 0.15 | 0.15 | 79 | 1018.2 |
| 20260831202058 | 25 | 92 | 4.8 | 14.5 | 0.00 | 0.15 | 0.15 | 78 | 1018.1 |
| 20260831201604 | 26 | 98 | 4.8 | 14.5 | 0.00 | 0.15 | 0.15 | 78 | 1018.2 |
| 20260831201059 | 26 | 123 | 3.2 | 9.7 | 0.00 | 0.15 | 0.15 | 78 | 1018.3 |
| 20260831200557 | 26 | 117 | 3.2 | 11.3 | 0.00 | 0.15 | 0.15 | 78 | 1018.3 |
| 20260831200058 | 26 | 88 | 4.8 | 11.3 | 0.00 | 0.15 | 0.15 | 78 | 1018.3 |
| 20260831195558 | 26 | 59 | 4.8 | 8.0 | 0.00 | 0.15 | 0.15 | 77 | 1018.4 |
| 20260831195057 | 26 | 77 | 3.2 | 12.9 | 0.00 | 0.15 | 0.15 | 77 | 1018.5 |
| 20260831194638 | 26 | 92 | 4.8 | 8.0 | 0.00 | 0.15 | 0.15 | 76 | 1018.5 |
| 20260831194056 | 26 | 89 | 1.6 | 9.7 | 0.00 | 0.15 | 0.15 | 76 | 1018.5 |
| 20260831193555 | 26 | 139 | 3.2 | 9.7 | 0.00 | 0.15 | 0.15 | 76 | 1018.5 |
| 20260831193055 | 26 | 113 | 3.2 | 11.3 | 0.00 | 0.15 | 0.15 | 76 | 1018.4 |
| 20260831192554 | 26 | 94 | 1.6 | 12.9 | 0.00 | 0.15 | 0.15 | 75 | 1018.4 |
| 20260831192054 | 26 | 137 | 4.8 | 12.9 | 0.00 | 0.15 | 0.15 | 74 | 1018.4 |
| 20260831191556 | 26 | 64 | 3.2 | 11.3 | 0.00 | 0.15 | 0.15 | 74 | 1018.4 |
| 20260831191053 | 26 | 71 | 4.8 | 11.3 | 0.00 | 0.15 | 0.15 | 72 | 1018.6 |
| 20260831190553 | 27 | 142 | 3.2 | 11.3 | 0.00 | 0.15 | 0.15 | 72 | 1018.6 |
| 20260831185553 | 27 | 117 | 3.2 | 11.3 | 0.00 | 0.15 | 0.15 | 72 | 1018.6 |
| 20260831185054 | 27 | 86 | 0.0 | 11.3 | 0.00 | 0.15 | 0.15 | 71 | 1018.6 |
| 20260831184558 | 27 | 96 | 3.2 | 12.9 | 0.00 | 0.15 | 0.15 | 70 | 1018.6 |
| 20260831184051 | 27 | 25 | 3.2 | 11.3 | 0.00 | 0.15 | 0.15 | 71 | 1018.6 |
| 20260831183552 | 26 | 72 | 1.6 | 8.0 | 0.00 | 0.15 | 0.15 | 74 | 1018.6 |
| 20260831183051 | 26 | 140 | 3.2 | 9.7 | 0.00 | 0.15 | 0.15 | 74 | 1018.6 |
| 20260831182550 | 26 | 100 | 4.8 | 9.7 | 0.00 | 0.15 | 0.15 | 74 | 1018.6 |
| 20260831182050 | 26 | 138 | 1.6 | 11.3 | 0.00 | 0.15 | 0.15 | 74 | 1018.7 |
| 20260831181551 | 26 | 87 | 3.2 | 11.3 | 0.00 | 0.15 | 0.15 | 74 | 1018.8 |
| 20260831181052 | 26 | 205 | 3.2 | 9.7 | 0.00 | 0.15 | 0.15 | 74 | 1018.8 |
| 20260831180548 | 26 | 132 | 3.2 | 8.0 | 0.00 | 0.15 | 0.15 | 74 | 1018.9 |
| 20260831180049 | 26 | 112 | 3.2 | 8.0 | 0.00 | 0.15 | 0.15 | 74 | 1018.8 |
| 20260831175548 | 26 | 82 | 4.8 | 8.0 | 0.00 | 0.15 | 0.15 | 74 | 1018.8 |
| 20260831175048 | 26 | 42 | 3.2 | 11.3 | 0.00 | 0.15 | 0.15 | 73 | 1018.9 |
| 20260831174551 | 26 | 135 | 3.2 | 14.5 | 0.00 | 0.15 | 0.15 | 75 | 1018.9 |
| 20260831174050 | 26 | 96 | 4.8 | 12.9 | 0.00 | 0.15 | 0.15 | 73 | 1018.9 |
| 20260831173546 | 26 | 117 | 1.6 | 6.4 | 0.00 | 0.15 | 0.15 | 75 | 1019.0 |
| 20260831173048 | 26 | 115 | 3.2 | 6.4 | 0.00 | 0.15 | 0.15 | 74 | 1018.9 |
| 20260831172546 | 26 | 248 | 3.2 | 6.4 | 0.00 | 0.15 | 0.15 | 75 | 1018.9 |
| 20260831172046 | 26 | 119 | 3.2 | 9.7 | 0.00 | 0.15 | 0.15 | 75 | 1018.9 |
| 20260831171547 | 26 | 114 | 3.2 | 9.7 | 0.00 | 0.15 | 0.15 | 74 | 1019.0 |
| 20260831171045 | 26 | 225 | 0.0 | 4.8 | 0.00 | 0.15 | 0.15 | 75 | 1019.0 |
| 20260831170544 | 26 | 96 | 1.6 | 6.4 | 0.00 | 0.15 | 0.15 | 73 | 1019.0 |
| 20260831170045 | 26 | 143 | 1.6 | 9.7 | 0.00 | 0.15 | 0.15 | 74 | 1018.9 |
| 20260831165543 | 26 | 80 | 4.8 | 9.7 | 0.00 | 0.15 | 0.15 | 72 | 1019.0 |
| 20260831165043 | 26 | 156 | 3.2 | 12.9 | 0.00 | 0.15 | 0.15 | 72 | 1018.9 |
| 20260831164543 | 27 | 79 | 1.6 | 12.9 | 0.00 | 0.15 | 0.15 | 73 | 1018.9 |
| 20260831164043 | 27 | 161 | 3.2 | 12.9 | 0.00 | 0.15 | 0.15 | 70 | 1018.9 |
| 20260831163542 | 27 | 160 | 6.4 | 12.9 | 0.00 | 0.15 | 0.15 | 70 | 1018.9 |
| 20260831163042 | 27 | 111 | 3.2 | 8.0 | 0.00 | 0.15 | 0.15 | 69 | 1019.0 |
| 20260831162541 | 27 | 208 | 1.6 | 11.3 | 0.00 | 0.15 | 0.15 | 71 | 1019.0 |
| 20260831162043 | 27 | 88 | 3.2 | 6.4 | 0.00 | 0.15 | 0.15 | 73 | 1019.0 |
| 20260831161541 | 26 | 115 | 1.6 | 11.3 | 0.00 | 0.15 | 0.15 | 71 | 1019.1 |
| 20260831161042 | 26 | 90 | 4.8 | 11.3 | 0.00 | 0.15 | 0.15 | 70 | 1019.1 |
| 20260831160538 | 27 | 38 | 1.6 | 9.7 | 0.00 | 0.15 | 0.15 | 70 | 1019.2 |
| 20260831160039 | 27 | 109 | 1.6 | 11.3 | 0.00 | 0.15 | 0.15 | 70 | 1019.2 |
| 20260831155538 | 27 | 144 | 1.6 | 11.3 | 0.00 | 0.15 | 0.15 | 69 | 1019.2 |
| 20260831155039 | 27 | 80 | 3.2 | 12.9 | 0.00 | 0.15 | 0.15 | 69 | 1019.2 |
| 20260831154541 | 27 | 153 | 6.4 | 12.9 | 0.00 | 0.15 | 0.15 | 68 | 1019.1 |
| 20260831154036 | 27 | 187 | 1.6 | 11.3 | 0.00 | 0.15 | 0.15 | 68 | 1019.1 |
| 20260831153536 | 27 | 37 | 1.6 | 16.1 | 0.00 | 0.15 | 0.15 | 70 | 1019.0 |
| 20260831153038 | 27 | 121 | 4.8 | 16.1 | 0.00 | 0.15 | 0.15 | 69 | 1019.0 |
| 20260831152534 | 27 | 262 | 1.6 | 8.0 | 0.00 | 0.15 | 0.15 | 72 | 1019.1 |
| 20260831152035 | 27 | 123 | 1.6 | 6.4 | 0.00 | 0.15 | 0.15 | 72 | 1019.1 |
| 20260831151534 | 27 | 84 | 1.6 | 6.4 | 0.00 | 0.15 | 0.15 | 74 | 1019.1 |
| 20260831151035 | 27 | 88 | 1.6 | 6.4 | 0.00 | 0.15 | 0.15 | 71 | 1019.2 |
| 20260831150531 | 27 | 222 | 0.0 | 8.0 | 0.00 | 0.15 | 0.15 | 75 | 1019.2 |
| 20260831150031 | 27 | 91 | 3.2 | 12.9 | 0.00 | 0.15 | 0.15 | 74 | 1019.2 |
| 20260831145530 | 26 | 114 | 3.2 | 12.9 | 0.00 | 0.15 | 0.15 | 74 | 1019.2 |
| 20260831145028 | 26 | 26 | 3.2 | 17.7 | 0.00 | 0.15 | 0.15 | 75 | 1019.2 |
| 20260831144527 | 26 | 65 | 4.8 | 17.7 | 0.00 | 0.15 | 0.15 | 76 | 1019.2 |
| 20260831144026 | 26 | 36 | 1.6 | 9.7 | 0.00 | 0.15 | 0.15 | 78 | 1019.2 |
| 20260831143529 | 26 | 108 | 3.2 | 9.7 | 0.00 | 0.15 | 0.15 | 78 | 1019.2 |
| 20260831143025 | 25 | 130 | 3.2 | 11.3 | 0.00 | 0.15 | 0.15 | 80 | 1019.1 |
| 20260831142527 | 25 | 80 | 3.2 | 11.3 | 0.00 | 0.15 | 0.15 | 80 | 1019.1 |
| 20260831142023 | 25 | 60 | 3.2 | 14.5 | 0.00 | 0.15 | 0.15 | 80 | 1019.1 |
| 20260831141523 | 25 | 22 | 0.0 | 8.0 | 0.00 | 0.15 | 0.15 | 79 | 1019.1 |
| 20260831141022 | 25 | 148 | 3.2 | 8.0 | 0.00 | 0.15 | 0.15 | 79 | 1019.1 |
| 20260831140521 | 25 | 113 | 0.0 | 6.4 | 0.00 | 0.15 | 0.15 | 82 | 1019.1 |
| 20260831140023 | 25 | 79 | 3.2 | 6.4 | 0.00 | 0.15 | 0.15 | 81 | 1019.2 |
| 20260831135520 | 25 | 355 | 1.6 | 9.7 | 0.00 | 0.15 | 0.15 | 83 | 1019.2 |
| 20260831135020 | 25 | 360 | 1.6 | 6.4 | 0.00 | 0.15 | 0.15 | 84 | 1019.2 |
| 20260831134519 | 24 | 108 | 3.2 | 6.4 | 0.00 | 0.15 | 0.15 | 85 | 1019.2 |
| 20260831134018 | 24 | 87 | 0.0 | 4.8 | 0.00 | 0.15 | 0.15 | 87 | 1019.2 |
| 20260831133517 | 23 | 102 | 0.0 | 11.3 | 0.00 | 0.15 | 0.15 | 89 | 1019.2 |
| 20260831133018 | 23 | 124 | 0.0 | 11.3 | 0.00 | 0.15 | 0.15 | 90 | 1019.2 |
| 20260831132518 | 23 | 126 | 1.6 | 9.7 | 0.00 | 0.15 | 0.15 | 90 | 1019.3 |
| 20260831132017 | 23 | 45 | 3.2 | 9.7 | 0.00 | 0.15 | 0.15 | 92 | 1019.3 |
| 20260831131518 | 22 | 117 | 3.2 | 6.4 | 0.00 | 0.15 | 0.15 | 92 | 1019.3 |
| 20260831131019 | 22 | 103 | 1.6 | 6.4 | 0.00 | 0.15 | 0.15 | 93 | 1019.3 |
| 20260831130517 | 22 | 78 | 0.0 | 9.7 | 0.00 | 0.15 | 0.15 | 93 | 1019.3 |
| 20260831130017 | 22 | 49 | 1.6 | 9.7 | 0.00 | 0.15 | 0.15 | 93 | 1019.4 |
| 20260831125519 | 22 | 107 | 1.6 | 4.8 | 0.00 | 0.15 | 0.15 | 93 | 1019.3 |
| 20260831125016 | 22 | 346 | 0.0 | 4.8 | 0.00 | 0.15 | 0.15 | 94 | 1019.3 |
| 20260831124516 | 22 | 54 | 1.6 | 4.8 | 0.00 | 0.15 | 0.15 | 93 | 1019.4 |
| 20260831124015 | 22 | 66 | 0.0 | 6.4 | 0.00 | 0.15 | 0.15 | 94 | 1019.3 |
| 20260831123516 | 22 | 53 | 1.6 | 9.7 | 0.00 | 0.15 | 0.15 | 94 | 1019.2 |
| 20260831123014 | 22 | 44 | 1.6 | 9.7 | 0.00 | 0.15 | 0.15 | 94 | 1019.2 |
| 20260831122514 | 22 | 34 | 1.6 | 8.0 | 0.00 | 0.15 | 0.15 | 94 | 1019.3 |
| 20260831122016 | 22 | 64 | 0.0 | 6.4 | 0.00 | 0.15 | 0.15 | 94 | 1019.3 |
| 20260831121513 | 22 | 21 | 0.0 | 6.4 | 0.00 | 0.15 | 0.15 | 94 | 1019.3 |
| 20260831121014 | 22 | 5 | 0.0 | 3.2 | 0.00 | 0.15 | 0.15 | 94 | 1019.1 |
| 20260831120511 | 22 | 43 | 0.0 | 3.2 | 0.00 | 0.15 | 0.15 | 94 | 1019.0 |
| 20260831120012 | 21 | 62 | 0.0 | 3.2 | 0.00 | 0.15 | 0.15 | 94 | 1018.9 |
| 20260831115510 | 21 | 53 | 0.0 | 1.6 | 0.00 | 0.15 | 0.15 | 94 | 1018.8 |
| 20260831115012 | 21 | 53 | 0.0 | 1.6 | 0.00 | 0.15 | 0.15 | 94 | 1018.9 |
| 20260831114511 | 21 | 55 | 0.0 | 1.6 | 0.00 | 0.15 | 0.15 | 94 | 1019.0 |
| 20260831114010 | 21 | 55 | 0.0 | 1.6 | 0.00 | 0.15 | 0.15 | 94 | 1019.0 |
| 20260831113510 | 21 | 55 | 0.0 | 0.0 | 0.00 | 0.15 | 0.15 | 94 | 1019.0 |
| 20260831113012 | 21 | 55 | 0.0 | 0.0 | 0.00 | 0.15 | 0.15 | 94 | 1019.0 |
| 20260831112513 | 21 | 55 | 0.0 | 1.6 | 0.00 | 0.15 | 0.15 | 94 | 1018.9 |
| 20260831112009 | 21 | 55 | 0.0 | 1.6 | 0.00 | 0.15 | 0.15 | 94 | 1018.9 |
| 20260831111509 | 21 | 55 | 0.0 | 0.0 | 0.00 | 0.15 | 0.15 | 94 | 1018.8 |
| 20260831111007 | 21 | 55 | 0.0 | 1.6 | 0.00 | 0.15 | 0.15 | 93 | 1018.8 |
| 20260831110508 | 21 | 55 | 0.0 | 1.6 | 0.00 | 0.15 | 0.15 | 93 | 1018.7 |
| 20260831110006 | 21 | 55 | 0.0 | 1.6 | 0.00 | 0.15 | 0.15 | 93 | 1018.6 |
| 20260831105508 | 21 | 55 | 0.0 | 1.6 | 0.00 | 0.15 | 0.15 | 93 | 1018.6 |
| 20260831105010 | 21 | 95 | 0.0 | 1.6 | 0.00 | 0.15 | 0.15 | 93 | 1018.6 |